Skip Page Navigation
NASA JPL Caltech
NASA Logo - Jet Propulsion Laboratory + View the NASA Portal
+ Center for Near-Earth Object Studies
JPL Home Earth Solar System Stars & Galaxies Technology
JPL Solar System Dynamics
BODIES ORBITS EPHEMERIDES TOOLS PHYSICAL DATA DISCOVERY FAQ SITE MAP
JPL Small-Body Database Browser
Search: [ help ]  
100333 (1995 SN5)
Classification: Mars-crossing Asteroid          SPK-ID: 2100333
Ephemeris | Orbit Diagram | Orbital Elements | Mission Design | Physical Parameters | Discovery Circumstances | Close-Approach Data ]

[ show orbit diagram ]
Orbital Elements at Epoch 2459200.5 (2020-Dec-17.0) TDB
Reference: JPL 16 (heliocentric ecliptic J2000)
 Element Value Uncertainty (1-sigma)   Units 
e .3115624294198641 2.9718e-08  
a 2.29953124265694 1.1267e-08 au
q 1.583083702167865 7.0043e-08 au
i 24.14890969311517 7.3143e-06 deg
node 14.48556418453603 9.2026e-06 deg
peri 261.338460056804 1.6697e-05 deg
M 125.261265041862 1.2785e-05 deg
tp 2458757.328634906540
(2019-Sep-30.82863491)
4.426e-05 TDB
period 1273.67140496567
3.49
9.3609e-06
2.563e-08
d
yr
n .28264746982343 2.0773e-09 deg/d
Q 3.015978783146016 1.4777e-08 au
  Orbit Determination Parameters
   # obs. used (total)      692  
   data-arc span      9248 days (25.32 yr)  
   first obs. used      1995-09-22  
   last obs. used      2021-01-16  
   planetary ephem.      DE431  
   SB-pert. ephem.      SB431-N16  
   condition code      0  
   norm. resid. RMS      .52636  
   source      ORB  
   producer      Otto Matic  
   solution date      2021-Feb-24 08:25:01  

Additional Information
 Earth MOID = .747882 au 
 Jupiter MOID = 2.51859 au 
 T_jup = 3.416 
[ show covariance matrix ]

Ephemeris | Orbit Diagram | Orbital Elements | Mission Design | Physical Parameters | Discovery Circumstances | Close-Approach Data ]

Physical Parameter Table
Parameter Symbol Value Units Sigma Reference Notes
absolute magnitude H 15.7   n/a MPO474878  

100333 (1995 SN5)          Discovered 1995-Sep-22 by McNaught, R. H. at Siding Spring
Reference: 20051019/Numbers.arcLast Updated: 2005-10-26

[ show close-approach data ]
Ephemeris | Orbit Diagram | Orbital Elements | Mission Design | Physical Parameters | Discovery Circumstances | Close-Approach Data ]
ABOUT SSD CREDITS/AWARDS PRIVACY/COPYRIGHT GLOSSARY LINKS
FirstGov 2021-Feb-28 16:56 UT
(server date/time)  
NASA Home Page
Site Manager:   Ryan S. Park
Webmaster  Alan B. Chamberlin